Date String (YYYY-MM-DD hh:mm:ss) UTC,Instrument flags,absolute air pressure of the measurement (hPa),sample flow rate (lpm),inlet stack bypass flow (lpm),air temperature of the measurement (°C),ambient temperature measured by the external sensor (°C),aerosol sample conditioner tube jacket temperature (°C),OPC LED temperature (°C),internal box temperature (°C),relative humidity of the measurement (%),span deviation,mass concentration of particles derived from Lorenz-Mie calculation of OPC scattering (μg/m³),mass concentration of particles derived from Lorenz-Mie calculation of OPC scattering (μg/m³),mass concentration of particles derived from Lorenz-Mie calculation of OPC scattering (μg/m³)
DateTimeUTC,F1_M11,P_M11,Q1_M11,Q2_M11,T1_M11,T2_M11,T3_M11,T4_M11,T5_M11,U1_M11,ZSPAN_M11,X0_M11,X2_M11,X1_M11
2023-08-02 12:00:00,SystemResetWarning,0833.6,5.00,000.00,029.6,027.8,000.0,038.1,031.1,26.6,0000.0,0003.81,0002.50,0002.08
2023-08-02 12:01:00,SystemResetWarning,0833.6,5.00,000.00,029.6,027.9,000.0,038.1,031.1,27.2,0000.0,0003.80,0002.52,0002.09
2023-08-02 12:02:00,SystemResetWarning,0833.6,5.00,000.00,029.6,028.0,000.0,038.1,031.2,26.7,0000.0,0003.87,0002.57,0002.11
2023-08-02 12:03:00,SystemResetWarning,0833.6,4.99,000.00,029.6,028.2,000.0,038.1,031.2,26.2,0000.0,0003.87,0002.58,0002.12
2023-08-02 12:04:00,SystemResetWarning,0833.7,4.99,000.00,029.6,028.3,000.0,038.1,031.2,26.1,0000.0,0003.93,0002.63,0002.15
2023-08-02 12:05:00,SystemResetWarning,0833.7,5.00,000.00,029.7,028.3,000.0,038.1,031.2,25.6,0000.0,0004.09,0002.71,0002.18
2023-08-02 12:06:00,SystemResetWarning,0833.7,5.01,000.00,029.7,028.4,000.0,038.1,031.3,25.6,0000.0,0004.01,0002.69,0002.18
2023-08-02 12:07:00,SystemResetWarning,0833.7,5.01,000.00,029.7,028.5,000.0,038.1,031.3,25.9,0000.0,0003.91,0002.67,0002.18
2023-08-02 12:08:00,SystemResetWarning,0833.6,5.00,000.00,029.7,028.5,000.0,038.2,031.3,25.8,0000.0,0003.81,0002.64,0002.16
2023-08-02 12:09:00,SystemResetWarning,0833.7,5.00,000.00,029.8,028.6,000.0,038.2,031.4,26.4,0000.0,0003.81,0002.61,0002.14
2023-08-02 12:10:00,SystemResetWarning,0833.7,4.99,000.00,029.8,028.6,000.0,038.2,031.4,26.8,0000.0,0003.66,0002.58,0002.11
2023-08-02 12:11:00,SystemResetWarning,0833.7,4.99,000.00,029.8,028.6,000.0,038.2,031.4,26.6,0000.0,0003.46,0002.52,0002.07
2023-08-02 12:12:00,SystemResetWarning,0833.7,5.00,000.00,029.9,028.7,000.0,038.2,031.4,26.8,0000.0,0003.54,0002.50,0002.05
2023-08-02 12:13:00,SystemResetWarning,0833.8,5.00,000.00,029.9,028.7,000.0,038.3,031.5,26.7,0000.0,0003.41,0002.42,0002.00
2023-08-02 12:14:00,SystemResetWarning,0833.8,4.99,000.00,029.9,028.1,000.0,038.2,031.4,28.6,0000.0,0003.48,0002.43,0001.97
2023-08-02 12:15:00,SystemResetWarning,0833.7,5.00,000.00,029.8,026.3,000.0,038.1,031.2,29.7,0000.0,0003.65,0002.45,0001.93
2023-08-02 12:16:00,SystemResetWarning,0833.7,5.00,000.00,029.7,025.6,000.0,038.0,031.0,30.0,0000.0,0003.53,0002.38,0001.89
2023-08-02 12:17:00,SystemResetWarning,0833.7,5.01,000.00,029.6,025.7,000.0,038.0,030.7,30.5,0000.0,0003.64,0002.40,0001.87
2023-08-02 12:18:00,SystemResetWarning,0833.8,5.01,000.00,029.5,026.0,000.0,038.0,030.8,31.4,0000.0,0003.80,0002.44,0001.85
2023-08-02 12:19:00,SystemResetWarning,0833.8,5.00,000.00,029.5,026.4,000.0,038.1,030.8,31.7,0000.0,0003.83,0002.44,0001.85
2023-08-02 12:20:00,SystemResetWarning,0833.8,5.00,000.00,029.5,026.8,000.0,038.1,030.9,32.4,0000.0,0003.79,0002.43,0001.83
2023-08-02 12:21:00,SystemResetWarning,0833.8,5.00,000.00,029.5,027.1,000.0,038.1,030.9,32.5,0000.0,0003.65,0002.38,0001.82
2023-08-02 12:22:00,SystemResetWarning,0833.8,5.00,000.00,029.5,027.3,000.0,038.1,031.0,31.8,0000.0,0003.61,0002.37,0001.81
2023-08-02 12:23:00,SystemResetWarning,0833.8,5.00,000.00,029.5,027.6,000.0,038.1,031.0,32.3,0000.0,0003.44,0002.32,0001.78
2023-08-02 12:24:00,SystemResetWarning,0833.8,5.00,000.00,029.5,027.8,000.0,038.0,031.1,33.4,0000.0,0003.54,0002.33,0001.76
2023-08-02 12:25:00,SystemResetWarning,0833.9,5.00,000.00,029.6,027.9,000.0,038.1,031.1,33.7,0000.0,0003.56,0002.29,0001.71
2023-08-02 12:26:00,SystemResetWarning,0833.9,5.00,000.00,029.6,028.1,000.0,038.1,031.2,33.7,0000.0,0003.38,0002.21,0001.69
2023-08-02 12:27:00,SystemResetWarning,0833.8,5.00,000.00,029.6,028.2,000.0,038.1,031.2,33.9,0000.0,0003.35,0002.18,0001.67
2023-08-02 12:28:00,SystemResetWarning,0833.8,5.00,000.00,029.6,028.3,000.0,038.1,031.2,34.1,0000.0,0003.28,0002.15,0001.65
2023-08-02 12:29:00,SystemResetWarning,0833.9,5.00,000.00,029.6,028.3,000.0,038.1,031.2,34.6,0000.0,0003.17,0002.12,0001.65
2023-08-02 12:30:00,SystemResetWarning,0833.8,4.99,000.00,029.7,028.4,000.0,038.1,031.3,35.2,0000.0,0003.11,0002.09,0001.64
2023-08-02 12:31:00,SystemResetWarning,0833.8,5.03,000.00,029.8,028.5,000.0,038.1,031.4,35.5,0000.0,0003.29,0002.13,0001.66
2023-08-02 12:32:00,SystemResetWarning,0833.9,4.98,000.00,030.1,028.5,000.0,038.1,031.5,35.4,0000.0,0003.33,0002.14,0001.65
2023-08-02 12:33:00,SystemResetWarning,0833.9,5.01,000.00,030.5,028.6,000.0,038.2,031.7,35.0,0000.0,0003.41,0002.17,0001.65
2023-08-02 12:34:00,SystemResetWarning,0833.9,4.99,000.00,030.9,028.6,000.0,038.2,031.8,34.5,0000.0,0003.56,0002.28,0001.70
2023-08-02 12:35:00,SystemResetWarning,0834.0,4.99,000.00,031.1,028.6,000.0,038.3,031.8,34.2,0000.0,0003.56,0002.33,0001.76
2023-08-02 12:36:00,SystemResetWarning,0834.0,5.00,000.00,031.2,028.7,000.0,038.5,031.8,34.1,0000.0,0003.54,0002.39,0001.86
2023-08-02 12:37:00,SystemResetWarning,0833.9,5.00,000.00,031.3,028.7,000.0,038.6,031.7,33.9,0000.0,0003.64,0002.46,0001.94
2023-08-02 12:38:00,SystemResetWarning,0833.9,5.01,000.00,031.4,028.8,000.0,038.7,031.8,33.8,0000.0,0003.91,0002.53,0002.00
2023-08-02 12:39:00,SystemResetWarning,0834.0,5.00,000.00,031.4,028.8,000.0,038.8,031.8,33.6,0000.0,0004.01,0002.60,0002.07
2023-08-02 12:40:00,SystemResetWarning,0834.0,5.00,000.00,031.5,028.8,000.0,038.9,031.8,33.5,0000.0,0004.33,0002.73,0002.17
2023-08-02 12:41:00,SystemResetWarning,0834.0,5.00,000.00,031.5,028.9,000.0,039.1,031.9,33.4,0000.0,0004.73,0002.92,0002.31
2023-08-02 12:42:00,SystemResetWarning,0834.0,4.98,000.00,031.5,027.8,000.0,039.0,031.8,33.7,0000.0,0004.80,0003.07,0002.43
2023-08-02 12:43:00,SystemResetWarning,0834.0,4.99,000.00,031.4,026.2,000.0,039.0,031.5,33.9,0000.0,0005.28,0003.18,0002.55
2023-08-02 12:44:00,SystemResetWarning,0834.0,5.01,000.00,031.3,025.7,000.0,039.0,031.3,34.3,0000.0,0006.24,0003.27,0002.69
2023-08-02 12:45:00,SystemResetWarning,0834.0,5.01,000.00,031.1,025.9,000.0,039.0,031.1,34.9,0000.0,0006.53,0003.33,0002.80
2023-08-02 12:46:00,SystemResetWarning,0834.0,4.99,000.00,031.1,026.3,000.0,039.1,031.2,35.2,0000.0,0006.93,0003.42,0002.92
2023-08-02 12:47:00,SystemResetWarning,0834.0,5.02,000.00,031.2,026.7,000.0,039.1,031.3,35.1,0000.0,0007.30,0003.51,0003.02
2023-08-02 12:48:00,SystemResetWarning,0834.0,4.99,000.00,031.4,027.0,000.0,039.1,031.5,34.7,0000.0,0007.42,0003.60,0003.11
2023-08-02 12:49:00,SystemResetWarning,0834.0,4.99,000.00,031.5,027.3,000.0,039.1,031.6,34.2,0000.0,0008.32,0003.73,0003.20
2023-08-02 12:50:00,SystemResetWarning,0834.0,5.01,000.00,031.6,027.6,000.0,039.2,031.6,34.2,0000.0,0008.51,0003.85,0003.30
2023-08-02 12:51:00,SystemResetWarning,0834.0,4.99,000.00,031.7,027.8,000.0,039.2,031.7,33.8,0000.0,0008.88,0003.99,0003.39
2023-08-02 12:52:00,SystemResetWarning,0834.0,5.00,000.00,031.7,028.0,000.0,039.3,031.7,33.7,0000.0,0009.25,0004.10,0003.44
2023-08-02 12:53:00,SystemResetWarning,0834.1,5.00,000.00,031.7,028.1,000.0,039.4,031.7,33.8,0000.0,0009.45,0004.22,0003.49
2023-08-02 12:54:00,SystemResetWarning,0834.1,5.01,000.00,031.7,028.3,000.0,039.4,031.7,33.9,0000.0,0009.61,0004.28,0003.55
2023-08-02 12:55:00,SystemResetWarning,0834.1,5.01,000.00,031.7,028.4,000.0,039.5,031.7,34.0,0000.0,0009.39,0004.35,0003.61
2023-08-02 12:56:00,SystemResetWarning,0834.2,5.00,000.00,031.7,028.4,000.0,039.5,031.8,34.0,0000.0,0009.47,0004.46,0003.69
2023-08-02 12:57:00,SystemResetWarning,0834.2,4.99,000.00,031.7,028.5,000.0,039.5,031.8,33.3,0000.0,0009.60,0004.52,0003.75
2023-08-02 12:58:00,SystemResetWarning,0834.2,4.99,000.00,031.6,028.6,000.0,039.6,031.8,32.9,0000.0,0009.53,0004.56,0003.81
2023-08-02 12:59:00,SystemResetWarning,0834.2,5.00,000.00,031.6,028.6,000.0,039.6,031.9,33.4,0000.0,0009.68,0004.66,0003.86
